GFSNW_250_rhum_120.txt.gz
RH
81 60 53 94 86 49 40 42 26 23 17 19 26 26 27 40 30 17 11 12 10 9 9 10 12 15 18 26 30 29 29 30 28 31 29 33 34 50 52 59 57 69 57 64
93 78 54 88 100 77 50 54 42 29 26 17 19 26 29 24 35 38 28 21 14 14 14 16 19 22 24 25 26 30 30 30 33 36 34 43 44 46 59 63 73 76 76 75
75 100 80 78 100 100 80 58 51 45 40 27 19 19 22 32 29 28 40 40 32 27 18 14 15 21 29 36 42 46 46 49 49 50 54 59 66 62 60 76 84 82 85 72
86 100 76 72 100 100 100 89 74 67 51 45 38 21 22 20 30 32 31 32 42 42 32 32 30 24 18 20 28 37 44 57 59 73 81 79 74 70 78 82 86 85 90 95
82 100 91 90 100 98 100 97 98 82 61 61 52 42 30 27 20 25 32 33 32 42 47 46 41 36 35 30 22 18 20 31 42 54 64 69 80 79 89 95 93 100 100 100
69 100 86 100 100 100 99 100 100 84 59 66 55 61 44 38 23 18 21 30 34 34 38 49 55 55 48 41 37 36 33 30 28 30 30 31 40 43 53 66 70 71 78 88
82 57 100 100 100 100 100 98 100 100 81 61 54 66 63 49 30 29 19 17 28 39 37 33 39 50 53 57 59 55 49 46 41 36 33 34 31 31 33 36 41 42 42 44
100 65 60 100 100 100 99 100 78 100 100 89 49 43 48 50 44 38 27 22 18 23 40 33 34 32 39 51 53 56 60 62 60 55 52 48 44 42 37 36 44 44 41 35
100 100 78 43 83 97 100 100 100 98 100 97 63 43 50 43 40 44 30 29 22 18 24 39 38 37 37 30 30 46 52 54 57 58 61 62 57 55 53 49 49 49 49 48
100 97 89 90 86 86 90 96 100 100 100 100 97 69 58 77 61 47 44 41 30 26 23 20 34 39 41 40 39 32 30 33 44 54 57 59 59 58 56 58 59 59 56 52
100 100 98 100 100 100 100 90 100 100 99 100 85 83 55 88 90 90 69 59 52 39 25 34 29 23 35 44 40 40 40 37 38 36 36 42 50 56 59 58 57 54 52 51
100 100 100 100 100 100 100 100 93 100 100 100 100 93 100 100 100 100 94 82 67 65 45 37 44 36 22 37 40 39 42 40 37 36 36 39 41 37 39 45 52 55 57 57
100 100 100 100 99 100 100 100 100 90 100 100 100 100 100 100 100 100 100 97 88 89 78 61 56 42 36 22 37 40 39 44 48 50 51 49 40 37 36 37 40 40 38 41
100 100 100 100 100 100 100 100 96 95 87 100 100 100 94 100 100 100 88 99 97 100 96 80 74 63 51 46 30 27 37 42 38 39 43 49 50 51 48 41 40 38 38 43
100 100 100 100 100 100 100 99 96 100 92 85 100 100 100 100 100 100 98 100 96 100 100 88 88 84 72 64 58 27 24 35 43 46 40 37 41 42 51 54 56 50 40 38
100 100 100 100 99 100 100 100 100 99 100 90 79 100 100 100 100 100 100 100 100 100 100 79 99 87 98 100 91 72 48 36 32 46 50 51 54 60 44 51 64 61 56 59
100 100 100 100 100 100 98 100 100 100 100 97 96 96 100 100 100 100 100 100 100 100 100 91 97 100 100 100 100 100 87 92 99 49 42 51 65 64 87 88 53 60 68 61
100 100 100 100 100 100 100 100 100 100 100 100 82 100 100 100 100 100 100 100 100 100 100 97 100 100 100 100 79 100 71 96 100 89 74 56 41 54 100 100 99 90 77 70
100 100 100 100 97 96 100 98 100 100 100 92 97 100 100 100 100 100 100 100 100 100 100 84 100 100 100 100 82 85 76 100 100 74 89 89 47 49 86 95 76 71 100 100
100 100 100 100 100 100 100 100 84 97 100 100 100 99 100 100 100 100 100 100 100 100 100 97 98 100 100 100 96 98 100 84 97 100 100 100 79 76 68 72 84 66 89 100
96 93 100 100 100 100 100 100 99 99 100 100 100 100 100 99 100 100 100 100 100 100 99 100 100 100 100 100 95 86 85 98 100 100 94 79 100 92 99 100 98 81 96 100
86 98 100 100 100 100 100 100 93 79 88 100 100 100 100 100 100 100 100 100 100 100 100 100 100 100 100 99 99 91 98 98 99 100 76 100 100 100 100 97 95 85 97 100
100 100 89 95 79 76 81 72 70 99 100 100 100 100 100 98 91 97 100 100 100 100 100 100 100 100 90 95 100 100 100 100 100 100 82 100 100 100 100 100 100 91 70 100
21 34 36 55 63 71 78 68 64 86 100 100 100 100 94 100 100 100 100 99 100 100 100 100 100 100 100 100 100 100 100 100 100 100 100 100 100 100 100 92 86 88 89 81
14 16 18 32 45 58 73 59 38 54 58 44 57 78 100 100 100 100 91 90 83 100 100 100 94 99 100 100 100 100 100 100 100 100 88 100 100 100 100 100 100 98 100 100
9 10 12 18 22 29 42 30 21 24 21 20 28 54 58 80 68 87 100 98 100 100 100 100 100 95 100 98 95 100 100 100 100 100 89 100 100 100 93 100 100 100 100 100
9 9 10 10 14 14 14 16 16 17 14 15 19 21 42 43 42 66 96 100 100 100 100 100 96 88 99 100 100 100 100 100 100 100 100 100 100 94 98 86 85 93 100 100

GFSNW_250_rhum_126.txt.gz
RH
66 67 74 66 57 75 65 98 78 61 54 51 24 19 17 16 18 20 23 21 30 38 22 17 18 15 19 21 22 22 24 26 28 30 33 40 45 52 56 67 78 84 85 84
80 88 81 63 63 58 86 70 70 70 55 80 62 40 22 23 15 18 21 23 24 24 32 37 24 22 24 24 18 17 22 26 35 43 54 56 70 77 88 94 98 98 92 92
76 98 87 87 66 78 85 75 100 83 62 61 77 69 50 26 23 16 22 23 26 27 25 29 37 40 31 25 26 31 35 29 25 30 43 56 62 68 67 68 72 84 89 92
84 98 100 95 82 71 90 75 91 100 72 83 59 74 78 58 40 27 20 20 24 28 30 25 27 32 41 41 38 33 31 31 32 41 41 38 36 33 34 33 44 47 49 49
100 87 87 100 100 100 99 62 88 100 89 100 79 81 74 86 66 45 34 23 16 25 38 31 28 30 33 35 41 45 46 44 43 39 32 34 46 47 48 53 54 51 47 46
100 100 82 100 94 100 100 100 100 94 92 95 98 88 88 77 94 72 54 44 32 21 24 35 34 28 27 29 34 37 44 51 49 47 49 46 48 50 47 42 42 44 47 48
100 100 100 100 93 100 100 100 98 98 93 80 100 100 99 93 88 83 79 55 43 44 22 25 33 31 27 29 30 31 34 35 40 47 51 49 48 50 53 54 50 54 52 53
100 100 100 100 100 85 100 100 100 100 100 74 83 100 100 100 100 99 94 84 58 44 48 41 28 37 41 28 30 32 35 35 35 36 36 35 37 43 48 51 51 51 50 48
100 100 100 100 100 100 100 100 100 100 100 100 97 77 100 100 100 100 100 100 82 82 58 47 57 39 33 41 36 25 30 31 31 33 35 39 39 42 36 35 33 32 34 38
100 100 100 100 100 100 100 100 100 100 100 100 100 100 91 100 98 100 100 100 100 88 98 78 53 59 53 45 40 38 32 32 25 31 33 34 38 43 48 58 56 53 51 38
100 100 100 100 100 100 100 100 100 100 100 100 100 99 100 100 100 98 100 100 100 100 99 100 90 82 67 64 58 50 53 42 45 35 30 50 34 34 38 42 48 52 57 58
100 100 100 96 98 100 100 100 100 100 100 100 100 100 100 100 100 100 100 99 92 100 100 100 100 95 80 90 82 76 72 56 52 48 43 38 44 41 37 38 34 37 43 52
100 100 100 100 100 100 98 100 100 100 100 100 100 100 100 100 100 100 93 100 100 100 100 100 100 100 98 90 99 96 89 67 47 57 46 49 45 44 39 44 55 50 46 31
100 100 100 100 100 100 100 95 98 100 100 100 100 100 100 100 100 100 100 100 100 100 100 100 100 100 100 100 100 100 98 78 57 60 65 51 44 47 49 52 68 86 83 73
62 87 100 100 100 96 100 100 100 100 100 100 100 100 100 100 100 100 100 100 100 100 100 100 100 100 100 100 100 100 100 62 62 92 69 75 63 51 63 63 74 86 82 68
79 85 100 100 100 100 92 100 100 100 100 100 100 100 100 100 100 100 100 100 100 100 100 100 100 100 100 100 100 100 77 57 74 87 83 76 83 70 72 85 90 90 86 96
96 83 97 95 100 100 100 100 100 100 100 100 100 100 100 100 100 100 100 100 100 100 100 100 100 100 99 95 100 100 92 98 100 100 100 100 94 96 81 85 93 69 73 95
100 100 100 100 100 100 100 100 100 100 100 100 100 100 100 100 100 100 100 98 100 100 100 100 100 100 100 100 100 100 100 86 90 83 88 98 100 100 100 98 99 100 95 76
99 89 100 91 65 74 100 94 92 97 96 88 100 100 100 100 100 100 100 100 100 100 100 100 100 100 100 100 100 100 100 90 84 86 85 86 100 100 100 100 100 100 100 100
100 100 81 100 100 100 100 99 96 96 88 80 93 100 100 100 100 100 100 99 100 100 100 100 100 100 100 100 100 100 100 92 97 100 99 94 97 100 100 100 100 100 100 100
91 100 100 100 100 100 97 100 91 94 86 94 74 100 100 100 100 100 100 100 100 100 100 100 100 100 100 100 100 100 100 92 96 100 100 100 100 100 100 100 100 100 100 100
36 50 74 81 73 94 100 100 78 82 74 75 99 100 100 100 100 100 100 100 100 80 92 92 85 100 100 100 100 100 90 88 83 90 99 100 100 100 100 100 100 100 100 100
14 15 19 32 23 26 39 40 24 33 38 38 38 84 96 79 98 100 100 92 100 96 91 99 100 100 100 100 100 100 100 95 100 96 100 99 100 100 100 100 100 100 100 100
10 9 9 10 11 11 12 12 12 13 16 16 25 49 73 80 80 69 84 72 51 60 81 100 100 100 100 100 100 100 100 100 100 100 100 100 100 100 100 100 100 100 100 100
9 9 8 9 11 10 10 12 11 11 11 12 14 25 26 18 20 29 41 48 33 28 54 80 89 100 100 100 97 100 100 100 100 100 100 100 100 100 100 100 100 100 100 100
5 6 7 8 10 11 10 11 11 10 10 12 11 12 14 15 13 13 16 21 26 22 27 27 34 53 72 57 58 86 76 74 100 100 100 100 100 100 100 100 100 100 100 100
4 5 6 6 6 8 8 9 10 10 11 11 12 11 10 9 10 10 10 10 14 16 15 15 17 16 25 29 44 65 34 55 100 100 100 100 100 100 100 100 100 100 100 100

GFSNW_250_rhum_129.txt.gz
RH
86 76 99 100 79 71 91 92 90 93 79 74 78 70 59 42 40 29 19 14 20 22 25 38 31 20 22 25 24 17 11 10 11 12 12 14 14 15 17 23 32 43 55 58
100 73 98 100 98 86 73 83 84 92 84 67 79 79 74 62 53 44 32 24 16 17 20 23 24 36 38 31 26 29 33 33 26 27 27 27 33 31 34 46 50 57 68 64
100 96 89 100 100 99 91 76 74 72 100 74 85 74 88 85 68 59 47 34 26 21 15 18 20 24 27 35 43 42 36 32 39 43 45 45 37 35 36 42 41 48 48 44
100 97 100 100 97 100 100 97 93 86 85 98 84 78 70 76 99 84 64 51 40 31 23 20 17 19 21 24 27 32 40 44 42 36 33 35 40 45 48 47 49 49 51 51
100 100 100 100 100 96 100 100 100 100 83 83 99 96 86 90 82 98 94 70 65 52 43 28 24 26 23 26 25 27 27 27 35 47 49 46 44 43 45 44 44 44 49 50
62 92 100 100 97 100 81 85 100 97 86 89 100 100 91 93 96 100 98 80 89 77 60 57 42 27 31 28 27 26 28 28 24 29 31 33 40 49 51 49 48 46 46 47
38 42 69 100 84 87 100 100 100 100 100 78 100 100 99 94 98 92 97 89 78 88 91 79 68 51 38 36 36 25 28 27 30 32 28 28 32 33 34 35 36 32 32 32
69 70 66 68 78 100 100 100 100 100 100 95 86 100 100 95 100 100 100 100 84 66 78 88 92 85 66 60 51 42 38 37 24 26 33 34 34 39 45 48 52 45 45 42
100 90 100 90 100 100 100 100 100 100 100 96 94 100 100 100 94 95 100 100 100 85 93 97 96 81 81 78 76 61 48 50 39 40 28 26 30 34 40 42 45 42 40 45
100 100 100 100 100 100 100 100 100 96 99 96 94 99 95 100 100 100 100 100 97 99 97 100 100 100 100 98 97 88 78 41 48 46 48 44 31 32 30 32 38 43 40 39
100 100 100 100 100 100 100 100 100 100 100 100 100 100 90 80 99 100 100 100 100 99 98 100 100 98 100 100 100 100 100 89 52 43 50 58 52 46 50 38 37 41 42 43
100 100 100 100 100 100 100 100 100 100 100 100 100 100 100 100 100 96 95 100 100 100 98 100 100 100 100 100 95 100 100 99 78 68 53 57 67 54 56 55 50 44 54 50
100 100 100 100 99 94 100 85 99 100 100 100 100 100 100 100 100 100 100 100 100 100 100 100 100 100 100 100 100 100 100 100 76 95 83 79 78 94 70 71 61 61 59 63
100 100 100 100 100 100 100 88 78 88 100 100 100 100 100 100 100 100 100 100 100 100 100 100 100 100 100 100 100 100 100 98 83 100 100 100 100 95 99 99 94 76 74 75
99 93 99 100 100 100 100 100 94 96 77 100 91 92 100 100 99 86 95 100 100 100 100 100 100 100 100 100 100 100 100 96 91 86 79 100 100 100 100 99 91 97 92 90
94 68 72 100 100 100 100 100 100 100 100 81 96 96 100 100 100 100 100 100 100 100 100 100 100 100 100 100 100 100 100 100 93 82 66 80 100 100 77 90 96 100 100 100
68 79 100 82 86 91 85 97 100 100 100 100 94 99 100 100 98 100 100 100 100 100 100 100 100 100 95 98 100 100 100 78 81 78 74 98 85 88 94 82 95 100 100 100
98 100 97 100 100 100 100 100 100 100 100 100 100 100 100 100 100 100 100 100 100 100 100 100 100 100 100 100 100 100 89 78 93 100 97 88 67 79 74 87 97 100 100 100
54 75 76 99 100 96 95 100 100 100 100 100 100 100 100 100 100 100 100 100 100 100 100 100 100 100 100 100 100 100 100 98 77 81 90 100 96 81 75 76 76 78 100 100
40 36 48 52 68 76 100 91 90 94 82 84 88 100 100 100 100 100 100 100 100 100 100 100 100 100 100 100 100 100 100 100 89 74 82 99 100 100 100 83 80 76 71 86
30 18 19 23 32 40 56 68 77 75 78 75 100 100 100 99 97 100 100 95 100 86 89 93 100 100 100 100 100 100 100 100 95 98 98 97 100 100 100 100 96 92 91 85
15 14 15 14 18 21 26 32 39 43 42 56 84 100 100 92 75 78 68 74 76 59 74 80 75 100 100 100 100 100 100 100 100 100 100 95 100 100 100 100 100 100 100 100
10 11 11 9 11 11 10 14 17 18 19 21 29 42 54 49 42 31 32 33 47 47 51 53 85 100 100 100 100 96 100 100 100 100 100 100 99 100 100 100 100 100 100 100
10 9 8 7 8 9 9 9 10 11 12 11 12 19 21 13 14 15 17 17 21 20 22 28 31 41 35 39 34 41 78 99 100 100 100 100 100 100 100 100 100 100 100 100
7 7 7 7 8 8 9 10 9 10 10 10 10 11 10 10 11 9 9 10 11 13 13 12 15 15 16 19 25 37 50 70 89 96 85 100 100 90 87 99 100 100 100 100
5 5 5 6 6 6 6 6 7 7 8 8 9 9 8 9 9 8 8 8 10 12 11 9 10 11 11 13 16 24 21 20 26 40 51 63 56 35 52 92 100 100 99 99
4 5 6 6 6 6 7 7 6 6 6 6 6 6 6 6 6 8 9 10 13 11 10 10 9 9 11 12 12 15 17 16 15 20 29 40 33 25 28 59 95 82 72 93

GFSNW_250_rhum_135.txt.gz
RH
100 100 94 88 100 94 72 90 75 64 86 71 63 48 46 39 37 34 34 26 24 21 23 18 17 20 29 28 26 17 14 17 20 21 22 23 24 25 24 25 23 23 23 21
100 97 100 96 94 97 92 66 100 77 84 88 72 68 49 40 35 39 36 39 41 25 19 23 24 22 19 21 23 29 30 29 29 26 24 28 26 25 25 26 29 34 33 33
100 96 100 100 94 97 87 80 75 96 81 89 82 79 80 53 47 40 43 39 48 45 32 25 21 23 28 24 20 20 21 22 26 30 33 34 32 34 34 34 35 38 39 40
100 99 100 100 99 100 81 81 79 72 97 74 100 78 72 92 62 46 46 43 34 48 46 35 30 44 42 39 30 25 23 22 24 24 24 25 25 25 26 25 25 26 27 28
98 90 100 100 98 98 100 89 83 73 100 88 83 100 78 96 84 78 55 69 57 40 52 50 37 35 34 45 62 50 38 27 27 33 30 28 28 28 28 28 28 28 28 29
100 87 93 100 100 96 94 99 90 82 99 100 95 99 89 95 100 100 86 79 97 76 54 61 67 57 38 44 54 71 64 57 45 34 30 38 40 34 34 37 41 41 43 45
99 98 83 96 100 100 89 97 99 87 94 100 100 100 100 90 86 100 100 97 72 79 80 72 81 59 74 59 47 59 81 74 77 54 43 37 40 50 51 46 42 43 46 54
100 100 100 100 100 100 99 86 93 94 83 89 100 100 100 100 100 93 100 100 100 100 98 85 85 78 80 78 65 59 55 83 83 85 82 67 46 44 37 45 49 56 56 53
100 100 100 100 100 100 93 97 100 100 100 99 100 100 100 100 100 100 90 100 100 89 99 100 100 88 90 81 71 72 53 68 100 98 97 98 68 57 67 67 54 63 72 73
100 100 100 100 100 100 100 100 100 100 100 100 100 100 100 99 100 100 100 100 100 99 81 92 100 100 100 95 94 90 93 98 80 100 100 100 95 68 64 75 95 100 92 93
100 100 100 100 100 100 100 100 100 100 100 100 100 100 100 96 91 87 97 100 100 100 100 88 98 100 100 89 90 100 95 83 100 90 100 100 100 98 68 49 66 67 77 91
100 100 100 100 100 100 100 100 100 100 100 100 100 100 100 100 100 100 100 100 100 100 100 100 97 96 100 96 78 80 98 97 90 100 98 68 71 99 86 72 63 70 67 67
100 100 100 100 100 100 100 100 100 100 100 100 100 100 100 100 100 100 100 100 100 100 100 100 100 100 100 100 100 84 100 95 100 100 100 100 60 68 51 64 71 69 88 93
98 96 100 100 100 100 100 100 100 100 100 100 100 100 100 100 100 100 100 100 100 100 100 100 100 100 97 100 100 100 100 100 98 77 81 66 78 69 81 63 64 68 81 100
100 99 99 100 100 100 100 100 100 100 100 100 100 100 100 100 100 100 100 100 100 100 100 92 100 100 100 98 100 100 100 100 100 96 66 60 80 81 74 90 91 92 79 91
100 100 100 100 100 100 100 100 100 100 100 100 100 100 100 100 100 100 100 100 100 100 100 95 90 100 100 100 100 100 100 100 84 71 70 81 100 82 88 92 87 95 100 100
100 100 100 100 100 100 96 97 75 81 89 98 100 100 100 100 100 100 100 100 100 100 100 100 100 100 97 100 100 100 100 100 90 99 85 93 100 100 100 100 100 100 91 100
97 100 99 89 81 71 75 63 56 66 64 67 83 73 84 100 100 100 100 97 92 100 100 100 100 100 100 100 100 100 100 97 89 92 100 100 100 100 100 100 95 98 100 100
87 58 59 71 79 69 78 88 81 67 47 46 47 54 65 89 76 64 63 62 66 78 65 69 62 68 92 85 95 100 100 100 100 100 100 99 99 100 100 100 100 100 100 100
67 90 94 67 72 66 53 62 73 49 40 37 44 46 44 47 36 47 44 34 32 32 38 48 32 36 63 58 58 64 84 100 100 100 100 99 67 74 80 100 100 95 90 94
68 41 53 51 34 30 28 38 28 25 22 24 26 28 29 29 21 24 23 24 25 20 20 29 21 26 39 37 32 43 52 62 73 75 92 80 58 62 58 55 79 91 98 100
29 20 20 22 21 20 19 21 20 16 16 18 17 17 19 20 17 18 16 16 17 19 16 17 16 19 19 20 26 35 28 31 44 52 38 34 35 50 57 60 61 65 72 86
19 17 14 14 14 15 15 16 12 11 12 12 12 11 11 12 13 11 10 11 13 10 10 10 12 12 11 12 13 16 16 17 17 17 16 18 19 34 61 68 62 70 66 78
12 11 12 12 12 11 12 12 11 11 10 10 9 9 9 9 9 9 9 8 8 8 8 10 10 10 10 10 10 10 11 11 12 13 12 12 14 18 36 65 77 80 65 56
14 14 13 14 14 12 11 12 12 11 11 11 10 10 10 10 9 10 9 9 9 10 10 10 10 10 9 9 9 9 8 9 10 11 12 12 13 16 23 37 55 66 62 62
12 11 13 12 12 11 12 11 11 11 10 10 10 9 8 9 8 8 8 8 8 8 7 7 7 7 7 6 6 7 8 9 10 10 12 13 13 14 15 17 16 15 15 16
11 13 12 12 12 11 10 11 12 13 12 10 9 8 8 8 7 8 9 8 8 7 8 8 7 6 5 5 6 6 6 7 7 9 10 10 10 11 12 13 13 13 12 12

GFSNW_250_rhum_138.txt.gz
RH
100 100 90 91 72 89 79 72 68 54 48 58 78 78 55 65 52 43 41 31 28 26 25 20 20 23 23 29 30 29 26 20 19 19 20 20 20 20 20 22 22 24 26 23
100 100 100 93 94 82 70 76 79 73 65 60 62 63 68 71 65 58 51 43 43 34 31 30 28 21 20 23 23 25 31 34 34 31 32 30 29 27 28 27 26 29 36 37
100 100 92 87 98 83 81 80 73 91 79 73 70 97 66 71 73 62 71 56 53 43 52 42 36 37 29 24 22 24 25 25 25 26 29 30 32 37 38 37 38 36 35 34
100 99 100 99 100 87 100 73 81 71 76 78 75 80 100 92 82 72 80 73 74 75 55 57 63 42 35 36 32 30 28 34 32 30 31 31 28 25 24 24 26 27 28 28
94 100 100 100 98 92 100 95 84 75 81 86 94 85 82 96 96 93 95 78 73 84 76 54 77 76 62 50 38 36 29 50 42 42 31 35 37 38 39 37 34 37 39 39
100 85 100 100 88 80 100 100 98 90 82 91 100 88 98 89 99 97 98 100 93 92 73 70 66 70 87 72 65 48 39 35 42 53 64 44 33 42 42 44 53 54 51 55
100 100 100 100 100 100 100 100 100 92 72 81 100 99 92 100 100 97 97 95 100 100 100 69 71 76 87 89 83 87 61 54 43 57 79 87 62 43 41 44 38 48 68 76
100 100 100 100 100 100 100 97 100 84 78 100 99 100 100 100 100 100 100 100 98 98 100 100 98 92 69 100 96 96 99 88 78 74 51 50 99 81 61 58 50 48 47 48
100 100 100 100 100 100 100 100 100 88 89 100 95 100 100 100 100 100 100 97 99 99 94 100 100 100 92 93 100 84 86 94 100 98 94 59 43 80 59 58 56 46 44 58
100 100 100 100 100 100 100 100 100 100 100 100 100 98 100 100 100 100 94 98 100 97 100 100 100 100 100 96 84 93 89 67 83 92 100 100 100 83 74 77 51 56 46 38
100 100 100 100 100 100 100 100 100 100 100 100 100 100 100 100 100 100 100 100 100 100 100 100 100 100 100 100 100 100 87 85 82 79 100 96 83 93 100 81 60 55 59 46
100 100 100 100 100 100 100 100 100 100 100 100 100 100 100 100 100 100 100 100 100 100 100 100 100 100 100 100 100 100 100 100 83 96 100 98 63 73 71 86 82 85 93 74
100 100 100 100 100 100 100 100 100 100 100 100 100 100 100 100 100 100 100 100 100 100 98 100 100 100 100 100 100 100 100 99 97 85 100 83 84 100 58 56 65 95 79 70
100 100 100 100 100 100 100 100 100 100 100 100 100 100 100 100 100 100 100 100 100 100 100 100 100 100 100 100 100 100 100 100 100 98 99 60 86 100 100 100 100 100 100 96
100 100 100 100 100 100 100 100 100 100 100 100 100 100 100 100 100 100 100 100 100 100 97 95 100 100 100 100 100 100 100 100 100 90 86 64 89 98 86 88 100 91 100 100
100 97 85 100 100 100 100 100 100 100 100 100 100 100 100 100 100 100 100 100 100 100 100 100 86 93 89 89 92 100 100 100 100 90 74 78 98 98 100 99 93 93 59 100
76 90 99 89 97 100 97 100 98 100 100 100 100 100 100 100 100 100 100 100 100 100 100 99 98 92 69 67 86 100 100 100 100 100 74 96 100 100 100 96 97 100 92 91
64 98 98 81 64 65 90 94 100 100 91 73 79 97 100 100 100 100 85 83 94 100 98 90 86 88 92 51 72 98 100 100 81 77 95 74 93 98 100 100 100 100 100 100
75 83 89 100 100 97 74 76 55 62 86 80 71 78 84 87 88 79 80 67 44 47 48 49 47 35 27 41 39 55 66 72 71 70 84 95 58 61 85 100 100 100 97 100
42 70 81 76 88 86 99 100 98 94 74 74 80 72 58 73 76 57 52 45 31 19 19 18 19 16 25 24 21 25 38 45 41 47 63 66 55 43 44 51 81 100 88 76
26 30 48 74 80 88 92 88 85 79 73 78 75 73 62 78 63 36 22 22 16 11 14 15 13 17 19 19 20 20 20 24 21 23 26 34 40 37 30 35 31 38 51 58
24 24 25 39 51 50 49 49 71 90 76 72 46 40 54 55 33 24 17 17 13 12 13 13 14 16 14 13 14 13 13 16 17 15 16 18 18 19 20 22 21 17 20 22
26 25 24 24 30 29 25 30 28 30 28 33 51 32 39 31 16 17 14 12 11 9 10 11 11 11 11 11 10 10 10 12 14 12 11 12 13 12 13 15 15 16 14 15
16 17 17 17 18 18 20 19 19 20 24 23 21 15 14 13 11 12 11 10 9 9 10 11 11 10 10 10 10 10 10 10 10 10 10 10 10 9 11 11 12 11 12 15
12 11 13 15 14 14 14 15 17 17 15 13 12 12 14 13 12 12 11 10 11 10 10 11 10 10 9 9 9 10 9 9 9 9 10 10 10 11 11 11 11 11 12 12
13 14 17 17 17 17 17 16 16 15 15 14 14 13 12 11 10 10 11 12 11 12 11 10 9 8 8 7 7 7 7 7 6 6 7 7 8 8 9 10 9 9 10 10
14 17 16 15 16 16 16 16 17 17 16 16 15 13 13 11 11 14 16 15 13 11 9 8 8 7 7 7 7 8 7 7 6 7 7 7 7 7 7 7 6 6 7 8

GFSNW_250_rhum_144.txt.gz
RH
12 12 16 72 100 83 58 81 65 70 79 75 64 53 38 38 31 36 41 40 29 24 22 20 21 25 28 24 22 23 24 26 28 28 26 23 18 16 18 24 29 32 36 37
19 16 18 39 96 95 80 74 89 70 71 81 74 65 52 40 39 31 42 45 53 39 29 29 28 23 26 24 29 28 25 24 23 22 22 23 26 28 28 27 25 23 23 24
47 36 26 34 69 100 100 74 81 92 74 70 73 72 68 56 46 58 48 43 47 65 46 40 40 34 41 40 34 32 35 33 32 28 31 31 31 30 27 26 26 25 24 22
94 74 77 75 72 81 98 100 89 98 74 67 60 71 65 62 61 48 60 51 69 65 71 51 41 45 48 55 46 51 45 36 38 36 40 31 28 29 34 37 36 33 34 36
86 100 96 96 94 99 100 100 100 84 100 100 80 75 72 63 68 74 75 79 65 61 76 80 58 52 61 47 55 63 57 62 64 52 44 40 36 34 27 25 30 38 35 34
98 98 100 100 100 100 100 100 100 100 97 95 99 98 95 81 76 77 75 95 70 70 75 76 76 64 70 81 66 61 70 70 58 54 64 74 58 55 48 44 43 36 34 35
100 100 100 100 100 100 100 100 100 97 99 85 98 100 100 99 89 81 93 90 98 69 73 79 75 78 82 100 77 80 80 88 86 79 61 59 61 57 54 56 57 56 46 43
99 98 100 100 100 100 100 100 100 100 92 98 99 100 100 100 100 94 90 97 99 86 78 87 84 72 93 100 80 100 100 93 98 82 89 87 75 61 96 71 51 56 41 46
100 98 79 88 100 100 100 100 100 100 100 100 100 100 100 90 95 100 100 78 89 100 100 100 100 77 97 98 85 84 81 88 93 82 80 88 85 85 91 97 86 82 71 64
100 100 96 83 93 86 100 100 100 100 100 100 96 99 100 100 100 100 100 100 99 100 97 100 100 100 100 100 90 80 88 94 99 89 90 99 100 100 97 96 100 98 97 100
89 100 100 100 96 96 96 94 91 100 91 100 100 100 100 100 100 100 100 100 95 100 100 100 100 100 100 100 100 100 100 100 100 100 100 100 100 90 92 100 100 98 99 99
100 100 94 100 100 96 100 93 86 93 95 88 95 100 100 100 100 100 100 100 100 100 100 100 100 100 100 100 100 100 100 100 100 100 100 100 74 90 77 74 79 85 96 98
54 82 81 83 100 100 98 100 89 70 65 73 97 100 100 100 100 100 100 100 100 100 100 100 100 100 100 100 100 100 100 100 100 98 96 88 79 94 94 91 98 100 100 100
58 57 70 66 68 100 100 100 100 100 95 100 93 74 94 100 100 100 100 100 100 100 100 100 100 100 100 100 100 100 100 100 86 90 100 92 92 88 98 100 100 100 100 100
84 76 66 63 58 94 100 100 100 100 95 98 100 88 100 100 100 100 100 100 100 100 100 100 100 100 100 98 98 100 100 90 87 83 96 97 95 94 97 94 98 96 83 96
80 53 46 49 61 76 81 90 89 100 100 79 100 100 100 99 100 100 100 100 100 100 100 100 100 100 100 100 100 100 100 98 100 100 99 96 100 90 93 94 95 92 96 100
34 34 38 68 71 85 78 69 85 88 88 98 95 100 100 100 100 100 100 100 100 89 87 100 96 100 100 100 100 100 100 96 99 100 100 96 96 95 93 89 67 72 96 74
40 32 28 50 57 57 87 70 67 83 73 69 78 84 100 100 100 100 99 96 94 99 100 100 100 97 100 100 100 100 100 87 85 83 73 57 58 71 62 53 60 64 50 32
38 25 28 33 39 33 44 52 62 57 64 58 46 51 92 86 97 96 84 82 83 84 95 86 80 88 90 93 80 76 70 62 57 61 57 54 47 45 42 38 31 22 17 17
18 19 22 23 28 27 34 40 27 39 58 49 54 35 30 42 60 73 71 80 96 79 80 71 80 94 100 87 48 55 50 39 34 30 28 23 23 24 19 15 14 14 14 13
18 17 18 17 17 16 17 20 21 26 32 32 32 22 21 26 35 41 39 36 34 46 67 72 71 69 62 48 34 33 28 25 22 22 22 19 18 20 17 13 12 11 11 11
17 20 20 18 22 19 19 19 21 20 16 18 20 20 20 19 21 24 22 21 21 24 43 56 59 60 46 29 22 18 18 20 20 18 18 18 14 13 13 12 11 11 10 11
16 19 19 20 22 21 21 22 21 22 21 20 19 18 19 17 18 18 18 18 18 20 28 38 38 30 22 15 16 17 16 16 16 15 14 15 13 12 13 14 13 12 11 11
15 17 19 21 21 21 20 21 21 21 22 22 22 21 20 21 20 18 17 16 15 15 16 16 15 14 14 13 13 13 13 12 12 12 12 15 16 17 16 15 15 13 11 11
12 14 16 18 19 20 21 22 22 22 22 22 21 20 20 20 18 16 15 13 14 15 15 14 13 14 12 11 12 11 10 11 12 14 15 16 17 18 17 14 14 13 13 12
10 12 16 18 19 20 21 21 23 24 23 22 20 19 18 16 15 15 15 15 17 17 14 14 14 14 14 14 13 13 12 13 14 15 15 16 17 18 17 16 15 14 13 12
10 13 15 16 18 20 22 25 25 21 19 19 18 16 14 13 14 18 17 18 17 16 16 15 15 14 13 14 14 16 16 16 17 16 16 14 14 15 16 16 14 12 11 12

GFSNW_250_rhum_147.txt.gz
RH
49 59 47 25 26 87 100 93 77 72 84 71 70 62 53 54 48 45 36 31 24 23 25 22 24 26 31 23 24 23 23 25 26 25 23 20 19 18 19 19 23 30 35 39
73 69 63 76 68 51 100 100 100 100 80 85 70 69 62 63 65 56 52 44 37 28 27 26 24 22 22 25 27 31 30 30 23 24 24 25 26 26 26 27 28 28 27 26
95 79 75 71 84 82 85 92 100 96 91 87 92 73 69 76 68 68 76 70 59 50 41 40 36 28 26 22 25 26 29 29 33 29 26 24 25 25 25 24 24 25 26 25
100 100 99 98 91 87 100 100 100 100 100 100 94 92 85 68 96 74 71 82 76 68 63 59 50 46 50 39 38 44 29 30 33 33 32 29 27 30 27 27 30 33 35 31
85 100 100 100 100 100 96 100 100 100 100 100 100 100 100 84 90 88 84 76 91 91 77 56 65 66 59 52 56 52 49 55 42 56 50 50 48 39 35 37 45 43 39 33
97 78 68 67 80 99 100 100 100 100 100 100 100 100 100 82 77 82 100 87 82 80 73 85 74 56 74 81 74 67 54 73 61 54 68 79 70 64 68 60 58 65 80 73
100 100 76 85 82 85 84 90 92 100 100 100 100 100 76 95 100 99 100 97 93 83 87 84 92 100 79 77 94 94 66 84 67 49 60 65 75 70 74 91 85 64 86 100
96 100 100 95 88 87 81 80 70 66 72 90 100 100 100 100 100 100 100 96 100 99 100 92 91 72 100 100 90 100 90 77 60 63 55 66 72 86 100 100 90 100 98 100
65 86 100 99 100 95 95 100 99 82 85 95 87 86 100 100 100 97 96 88 97 100 100 100 97 83 73 96 100 100 91 100 100 88 72 68 92 100 100 91 72 81 86 90
97 91 82 100 100 92 85 77 100 100 98 76 99 100 97 99 100 100 100 100 92 94 100 100 100 99 82 74 100 100 100 100 100 100 89 94 74 81 56 53 56 64 57 80
100 100 100 100 100 97 100 99 100 100 100 100 97 98 100 100 99 92 100 100 100 100 100 100 98 95 100 100 100 100 97 100 92 97 100 85 83 82 99 93 88 96 77 93
99 100 100 100 100 100 100 100 99 83 88 99 88 96 100 100 100 100 94 85 96 100 100 100 100 100 100 100 100 100 100 100 100 90 100 95 94 88 100 100 91 91 98 100
79 64 92 100 100 100 100 100 100 100 86 54 69 84 91 97 100 100 100 100 100 100 100 100 100 100 100 100 100 100 100 100 100 96 100 96 100 100 99 93 94 93 85 79
91 81 68 75 98 100 96 95 98 97 86 67 57 60 79 79 100 100 100 99 100 100 100 100 100 100 100 100 100 100 100 100 100 100 100 100 100 100 100 100 90 100 100 100
100 100 96 95 93 88 90 87 71 68 63 52 51 48 64 65 77 99 100 100 100 100 100 100 100 96 99 99 100 100 100 100 100 100 100 100 100 100 100 99 100 91 95 100
99 95 89 97 86 73 93 73 55 65 63 70 65 68 54 45 70 84 100 100 94 77 87 99 94 100 100 98 99 100 100 92 99 100 100 100 100 100 100 94 100 100 100 100
76 90 98 80 59 55 60 75 74 76 68 61 56 46 51 51 46 62 91 99 98 94 86 82 92 100 98 93 100 100 100 100 96 86 78 85 100 100 100 100 99 95 93 77
98 90 83 73 66 53 54 70 59 57 67 57 42 43 45 45 33 50 66 70 86 85 86 94 94 87 87 74 100 100 100 89 89 80 56 47 55 66 65 68 64 56 55 58
44 53 55 45 34 32 30 32 36 40 41 38 38 45 31 26 27 28 42 54 57 64 77 84 85 91 92 94 79 92 91 87 80 76 73 71 61 60 65 60 51 43 38 34
34 38 35 28 29 26 26 25 25 23 21 22 29 26 19 20 24 27 33 37 37 40 47 64 73 81 84 78 66 61 69 85 93 89 89 76 60 48 47 46 46 46 43 37
21 22 23 18 21 21 18 16 16 14 13 14 16 18 16 16 16 20 21 24 22 21 28 35 32 40 58 57 51 29 28 36 42 55 59 45 31 25 30 49 51 50 45 43
14 14 15 14 13 12 13 13 13 12 12 12 15 18 17 17 19 18 17 16 16 16 16 16 18 25 26 22 24 23 18 19 22 31 32 26 21 21 22 30 32 30 18 15
14 14 13 12 12 12 12 12 12 12 12 13 14 14 16 19 19 18 18 17 18 15 16 17 22 21 19 17 16 16 16 17 18 17 16 17 17 18 21 21 18 18 15 13
13 12 12 12 12 12 12 12 12 12 12 13 13 14 15 16 18 19 19 18 17 17 18 21 21 20 19 17 17 16 14 14 15 16 16 20 17 17 17 15 14 13 12 11
12 12 12 12 12 12 11 11 11 11 11 12 12 12 13 14 15 17 17 18 19 20 22 21 20 18 18 16 16 17 16 15 16 18 18 16 16 16 14 14 13 12 13 14
10 11 11 11 11 10 11 11 11 11 12 11 11 10 10 11 13 15 16 17 18 21 17 18 18 17 16 16 14 15 17 18 18 16 16 16 17 16 15 15 14 13 13 14
9 11 10 10 10 10 11 12 12 11 10 10 10 8 9 10 12 15 16 14 15 16 16 15 15 16 17 17 17 17 17 17 18 18 18 16 14 13 12 12 13 12 12 12

GFSNW_250_rhum_150.txt.gz
RH
92 96 92 96 92 84 75 67 84 100 92 93 94 81 74 66 75 69 66 42 41 33 32 29 26 24 24 24 20 20 22 24 24 22 20 19 18 20 22 24 29 31 35 38
100 100 100 87 96 98 87 85 100 97 89 100 100 100 100 91 68 87 68 66 57 46 42 38 37 41 30 30 27 29 28 24 22 22 23 24 25 24 24 25 24 22 22 21
99 98 93 95 95 100 100 100 92 100 100 100 100 100 100 100 92 74 79 89 83 62 58 53 46 40 42 39 34 27 29 29 28 32 26 27 28 35 28 22 23 28 24 23
98 98 100 100 84 76 70 77 100 100 100 100 100 100 100 100 100 85 76 73 89 83 72 64 61 52 44 48 46 39 37 31 30 24 31 29 38 33 31 32 36 45 40 36
100 100 100 100 100 94 92 59 69 74 71 92 100 100 98 100 100 94 100 89 100 66 81 88 78 65 59 57 68 64 44 46 41 33 30 30 30 55 45 46 41 45 58 54
100 100 100 94 98 91 80 94 100 81 63 65 70 81 86 92 97 99 100 100 100 100 97 96 90 90 100 78 65 85 88 71 46 45 43 39 32 31 54 74 68 48 65 74
100 100 100 100 100 100 100 90 85 80 80 76 56 76 82 100 91 75 75 98 100 100 100 99 100 99 89 99 91 77 76 100 100 89 53 74 48 50 57 59 39 56 59 57
100 100 100 100 100 100 85 100 100 100 98 100 99 81 72 72 74 95 100 79 96 96 100 100 100 100 100 95 94 77 64 83 100 100 100 99 97 75 56 74 38 42 51 65
100 100 100 100 100 100 100 100 100 100 100 100 100 100 91 78 81 80 94 100 100 99 100 100 100 100 100 100 100 100 80 69 85 100 100 100 100 100 80 79 76 78 73 94
100 100 100 100 100 100 100 100 100 100 100 100 100 100 99 100 96 96 100 97 91 88 78 82 100 91 97 100 100 100 100 98 100 73 96 100 100 100 100 100 97 97 91 82
100 100 100 100 100 100 100 100 100 100 100 100 100 100 100 100 100 100 98 100 99 86 77 75 83 99 94 93 85 100 90 100 100 100 98 99 100 100 100 98 91 100 100 100
100 100 100 97 100 100 98 100 100 95 100 100 97 100 100 100 100 100 100 100 92 89 79 68 65 74 100 97 81 93 84 84 100 100 100 100 100 100 100 100 100 100 94 99
99 90 94 85 82 99 100 95 74 68 79 93 84 85 100 100 100 100 100 100 100 94 73 69 62 58 67 93 92 88 80 88 81 65 100 100 95 87 99 100 100 100 100 100
80 82 78 70 70 71 76 84 100 96 68 64 94 90 89 100 97 100 100 100 100 100 95 79 67 62 65 100 100 93 100 100 90 77 88 71 83 98 94 89 98 100 100 100
63 74 78 70 55 57 58 61 61 76 98 70 63 59 73 85 82 100 96 93 89 88 71 70 62 55 59 69 74 100 100 100 100 74 74 75 76 71 86 92 92 98 100 97
55 51 50 45 52 57 49 58 57 64 64 64 70 53 54 54 54 64 76 60 57 59 47 42 45 50 55 50 48 100 100 100 100 98 79 77 94 100 97 87 94 100 100 100
74 65 55 47 49 68 60 59 69 60 54 57 74 54 48 46 43 41 41 40 37 36 35 37 35 39 42 40 36 73 80 95 94 88 88 81 77 74 80 82 76 69 66 63
95 84 67 70 61 84 84 76 62 60 65 51 76 62 42 38 36 35 31 31 32 28 26 30 37 42 37 38 52 34 38 55 72 72 68 75 85 91 94 89 77 73 70 68
100 100 100 100 100 82 72 66 47 42 37 35 35 40 34 30 27 27 24 26 26 25 26 30 31 29 37 56 40 27 27 33 41 55 58 66 74 77 86 84 73 73 67 64
92 88 92 96 96 70 75 60 35 42 40 25 30 30 27 21 22 24 21 22 21 20 20 20 20 22 47 38 24 18 23 26 27 34 40 39 41 37 38 60 81 79 77 68
74 84 76 67 72 64 31 25 21 21 23 19 17 16 17 15 16 17 15 13 14 12 12 12 11 15 18 16 18 15 16 18 19 20 25 24 23 23 30 36 34 31 41 53
46 36 43 49 34 18 17 16 15 16 14 14 13 13 13 13 13 13 13 12 11 11 11 10 11 16 15 18 16 17 16 16 16 17 17 20 18 18 20 20 21 24 24 17
20 17 17 16 16 15 14 14 15 15 13 12 12 13 13 12 12 12 12 11 11 10 10 10 11 14 14 14 15 15 16 16 17 18 19 19 20 19 19 19 18 18 18 17
16 16 16 15 14 14 14 14 13 13 12 12 11 11 11 11 11 11 11 10 10 10 10 11 11 11 12 12 12 14 15 16 17 18 18 19 20 20 19 19 19 19 18 16
15 15 14 14 13 12 11 11 11 10 10 10 10 10 10 10 10 10 10 9 9 9 10 9 9 10 11 11 11 12 13 16 16 18 17 17 17 19 20 19 17 15 14 13
10 11 11 10 9 10 10 10 10 9 9 9 9 9 9 9 9 9 9 8 9 9 8 8 9 9 9 9 10 11 14 17 17 17 16 16 16 15 14 14 16 16 14 13
12 12 10 9 10 10 9 9 9 8 9 9 8 8 7 7 7 8 8 7 6 7 8 8 8 8 8 9 10 12 13 13 13 12 13 14 14 15 15 16 17 16 16 15

GFSNW_250_rhum_153.txt.gz
RH
100 100 100 99 94 88 69 77 94 95 94 100 99 92 86 96 81 52 59 67 56 57 52 42 34 41 37 30 22 22 22 24 24 24 26 29 32 33 34 33 32 29 29 34
100 100 100 100 100 100 100 85 77 95 99 99 100 100 100 73 98 88 61 79 66 60 55 68 47 42 37 48 42 32 30 23 28 31 29 23 23 24 25 24 23 21 20 21
91 94 100 87 88 97 82 74 72 61 59 64 70 79 91 100 83 82 88 74 99 79 63 66 82 65 49 42 40 46 40 37 29 32 28 31 26 30 32 25 24 25 26 27
100 93 99 100 86 96 86 97 85 81 72 64 61 63 66 65 80 99 90 82 92 100 100 96 77 70 81 64 56 50 43 34 39 39 32 30 27 30 32 37 39 42 42 48
98 100 100 100 100 100 100 100 100 100 100 77 73 75 88 65 60 50 67 86 94 78 91 100 100 100 78 99 93 100 80 52 49 54 60 46 42 42 30 32 30 42 46 51
100 100 100 100 100 100 93 94 89 98 100 100 100 87 94 98 99 88 67 51 54 83 73 68 71 96 100 88 90 100 94 69 88 88 84 54 61 54 38 47 35 32 39 48
100 100 100 98 100 100 83 66 71 76 98 100 100 100 100 100 100 98 97 94 86 63 67 90 98 73 82 94 100 91 99 100 100 95 79 95 93 95 92 71 80 65 48 46
100 100 100 100 99 100 99 84 67 54 62 80 87 98 98 100 100 100 100 100 100 99 99 89 99 94 89 100 96 76 62 76 84 100 100 96 71 91 100 100 99 92 99 90
100 100 100 100 100 100 100 100 100 100 68 65 59 75 92 81 71 73 98 100 100 97 93 95 99 96 100 84 74 82 94 84 73 62 69 66 70 99 92 84 100 100 94 81
100 100 100 100 100 100 100 100 100 100 100 100 100 100 100 99 86 90 90 88 83 97 100 94 84 85 84 92 84 87 83 75 79 59 77 84 59 52 85 100 100 100 100 100
100 100 99 99 100 100 100 100 100 100 100 100 100 100 96 100 97 79 76 89 96 80 79 73 90 98 99 100 88 68 64 63 61 64 64 78 75 54 54 54 70 100 100 100
100 100 99 97 98 90 96 93 100 100 100 100 100 100 90 87 92 87 98 79 66 81 100 100 95 100 100 100 100 100 89 65 55 62 57 64 83 88 56 62 61 52 52 84
100 100 100 100 100 99 100 100 98 98 100 93 98 97 87 80 82 78 79 76 66 77 78 67 90 94 81 94 98 100 100 100 97 76 67 60 51 58 75 88 84 74 64 63
100 100 100 95 100 100 100 89 93 90 99 98 87 73 72 72 68 61 59 59 62 63 60 54 51 53 64 60 56 58 84 100 97 82 74 65 43 39 44 63 88 100 91 70
100 100 100 90 75 77 94 91 90 87 82 84 88 68 65 60 60 64 58 53 52 52 50 46 42 39 42 38 38 38 47 52 54 49 47 44 41 39 37 45 56 74 98 99
87 86 75 64 60 56 44 81 76 74 73 68 69 68 56 57 55 58 45 40 46 51 43 38 30 33 31 27 27 34 51 52 40 38 33 32 34 41 45 62 58 62 58 77
68 71 58 62 61 48 40 38 46 49 48 46 45 49 56 60 85 78 63 48 44 37 33 31 27 24 23 21 28 36 35 38 31 28 26 25 31 46 53 64 69 66 54 58
57 83 88 63 76 53 37 40 43 39 42 46 50 63 67 54 48 44 45 40 34 32 24 23 22 21 22 23 26 25 27 28 26 24 25 24 29 40 36 37 41 44 42 41
89 65 85 62 65 100 92 54 48 51 54 44 45 56 61 40 38 37 33 28 27 24 19 17 16 17 16 18 18 19 19 18 21 24 22 19 19 18 22 21 27 32 28 24
83 40 61 64 60 54 84 88 67 52 65 75 48 38 40 37 42 40 34 29 23 17 15 13 12 14 15 13 12 12 14 16 15 16 16 15 15 15 13 13 14 18 26 20
35 35 37 47 54 46 56 81 67 49 49 36 37 39 32 28 30 24 21 16 15 13 13 12 12 15 14 12 12 13 13 13 14 13 13 13 13 14 15 15 15 15 15 16
25 34 37 32 30 43 49 48 50 36 33 38 33 27 30 23 20 16 14 13 12 12 12 11 12 14 14 13 13 13 13 12 12 12 12 12 12 12 13 13 13 13 12 14
20 23 25 23 27 27 28 33 32 25 22 20 18 16 14 14 13 13 13 12 12 11 11 11 11 12 13 12 12 12 12 11 11 11 11 11 12 12 11 12 11 11 11 13
20 18 19 18 17 17 18 18 18 16 16 15 14 14 13 13 13 12 11 10 9 9 9 10 10 10 10 10 10 11 11 12 11 12 12 11 10 10 10 10 9 9 11 13
20 18 18 18 18 18 17 16 16 16 15 13 12 10 10 9 8 7 7 8 8 8 8 8 8 7 8 9 10 11 11 11 10 9 9 9 8 8 8 8 8 9 10 12
16 17 17 16 15 14 13 12 12 10 9 8 8 7 7 7 7 8 8 8 9 7 6 6 7 8 8 8 8 8 8 8 8 8 8 8 8 8 9 9 9 9 10 12
14 13 12 10 10 10 10 9 8 8 8 8 7 7 8 7 7 9 10 7 6 6 6 6 7 8 9 9 8 7 7 7 7 7 7 8 8 8 8 9 9 9 10 10

GFSNW_250_rhum_156.txt.gz
RH
100 87 99 91 96 67 59 51 49 45 51 60 60 51 64 57 66 68 62 47 63 47 42 50 41 36 44 39 31 32 30 28 25 27 31 34 35 33 32 31 31 30 28 28
100 100 100 90 96 100 84 93 87 62 41 47 57 76 74 84 57 53 65 70 60 51 45 51 46 49 43 43 43 39 41 41 37 31 25 25 26 26 26 24 24 24 26 27
100 94 100 96 99 100 100 100 100 84 79 63 52 69 81 92 85 68 62 60 56 57 60 52 56 46 48 47 44 43 47 50 50 54 43 39 42 36 29 27 27 29 28 27
100 100 100 100 100 100 100 100 100 100 88 70 63 55 51 67 67 71 78 78 78 67 62 58 49 52 55 56 67 54 46 41 43 47 47 48 47 43 47 48 41 48 45 46
70 92 100 100 100 100 100 100 100 82 83 70 58 52 57 71 96 89 100 100 100 100 80 74 71 59 74 52 64 61 82 53 51 58 45 40 44 49 58 51 43 56 52 45
100 100 100 100 100 100 100 100 96 84 64 58 58 59 72 72 84 100 95 96 94 94 100 100 89 85 82 65 69 100 57 55 56 56 86 91 65 42 43 43 69 76 53 62
97 96 83 97 100 98 100 100 100 100 95 76 68 64 63 61 55 51 52 61 72 77 72 80 91 100 96 86 87 72 70 82 93 75 49 61 62 69 66 54 45 54 91 97
100 100 99 99 96 93 100 100 100 100 100 100 99 84 64 57 50 61 56 52 45 42 42 43 54 66 98 100 100 96 88 78 71 68 60 64 62 61 63 77 67 57 61 80
100 100 100 100 100 100 100 100 100 100 100 100 100 100 100 91 79 64 73 70 75 71 69 58 59 53 45 50 88 99 99 100 100 94 75 75 80 64 64 60 63 84 76 64
93 99 100 100 100 100 100 100 100 100 100 100 100 100 100 100 100 100 100 99 99 96 98 77 67 60 52 53 58 62 54 68 74 63 74 98 89 64 61 59 62 69 93 98
98 76 78 94 100 100 100 100 100 100 100 100 100 100 100 100 100 100 100 100 100 100 95 76 74 75 73 77 72 65 60 54 57 54 50 52 69 80 66 62 51 50 56 71
100 100 100 100 88 75 98 94 100 100 100 100 100 100 100 100 100 100 100 96 96 88 93 93 92 85 82 78 76 76 72 63 59 57 56 47 44 47 45 42 65 73 63 57
100 90 91 100 100 100 99 100 98 84 94 94 87 98 96 100 100 100 100 100 100 100 96 85 76 74 72 69 65 62 63 57 53 49 43 36 38 30 34 40 45 44 50 62
52 82 79 77 89 75 79 58 74 94 100 96 100 100 81 84 90 85 84 97 100 100 90 88 83 77 67 65 60 60 58 56 49 42 37 36 31 30 26 29 33 37 38 41
45 58 67 61 76 66 54 56 50 69 62 76 96 100 100 94 76 76 76 64 82 85 93 84 70 69 67 63 58 61 65 50 38 34 32 29 27 29 25 20 24 30 33 37
63 51 60 49 71 73 69 63 61 51 56 41 52 76 97 92 87 76 64 67 55 66 66 69 61 58 45 37 40 49 45 36 32 29 24 22 26 26 25 25 25 27 27 36
60 62 68 55 67 61 66 58 56 87 83 65 54 54 70 68 65 58 46 50 43 42 38 41 46 46 42 37 34 37 38 32 26 27 22 18 19 20 22 23 23 24 25 26
80 85 79 77 92 77 76 84 77 69 72 58 53 76 76 66 58 34 30 32 40 32 34 34 34 32 33 30 36 28 28 26 23 23 18 16 14 14 14 15 16 18 21 19
98 85 93 95 93 100 93 100 71 72 94 98 87 65 94 78 46 33 24 25 30 36 32 30 32 34 26 28 29 28 26 20 20 17 15 13 13 13 12 12 13 14 14 15
100 100 100 100 100 97 100 94 100 100 78 77 81 89 82 65 70 46 25 27 28 25 24 30 32 29 24 22 26 23 24 18 16 15 14 14 14 14 13 12 12 13 13 12
100 100 100 100 100 100 100 98 98 96 93 86 79 82 72 73 70 28 23 26 24 26 27 24 24 26 24 23 20 18 16 14 13 12 12 12 13 12 12 12 12 12 12 12
99 100 100 100 100 100 100 99 100 97 85 84 75 70 38 44 38 21 20 20 18 19 17 17 18 18 17 17 16 14 13 13 13 13 12 12 11 11 11 11 11 11 11 11
100 100 100 100 100 80 74 95 99 80 78 32 25 25 22 24 23 20 19 17 16 15 15 16 16 16 15 13 13 12 12 12 11 10 10 9 9 9 9 9 9 9 9 10
99 91 68 43 32 33 37 40 49 52 34 21 19 19 18 19 19 19 18 16 16 15 14 14 13 12 10 8 8 8 8 9 9 9 8 8 8 8 8 8 8 8 9 9
48 29 21 25 23 26 20 15 14 14 13 13 12 13 15 16 16 15 15 13 12 12 11 9 7 7 7 9 9 8 9 8 8 7 7 7 7 7 7 8 7 7 7 7
15 16 14 13 13 13 11 11 11 11 11 10 10 10 10 10 10 10 10 10 10 10 8 7 6 7 8 8 8 8 8 6 6 6 6 6 6 6 6 7 7 6 6 6
12 11 10 10 10 11 11 12 11 10 10 9 9 9 9 9 9 10 11 10 8 6 6 7 7 8 8 7 6 6 7 6 7 8 7 7 6 6 6 6 6 6 6 6

GFSNW_250_rhum_162.txt.gz
RH
82 98 100 88 100 96 100 100 100 100 93 80 100 81 76 48 34 32 31 33 38 37 36 34 45 42 34 36 40 44 36 36 33 31 34 38 42 45 38 32 34 36 36 44
100 84 81 70 85 100 92 98 100 100 100 100 100 100 68 57 49 37 32 38 32 43 49 45 40 39 42 44 44 36 47 53 46 40 39 38 36 36 35 35 35 35 32 38
83 63 61 62 54 65 64 70 100 100 100 100 100 93 63 58 64 38 43 40 46 33 38 47 55 51 44 45 42 44 42 40 41 45 49 53 50 58 49 50 45 44 37 39
82 63 48 54 51 46 71 79 65 91 97 97 100 96 76 56 62 70 57 42 72 76 38 35 37 39 42 41 45 44 42 44 46 44 38 38 39 38 42 52 53 64 44 59
64 54 55 46 52 60 100 82 100 92 80 81 91 64 90 76 97 97 76 82 45 81 77 65 48 44 53 53 44 38 39 41 42 40 47 58 57 48 38 45 42 43 44 48
56 54 61 64 84 50 93 100 100 100 100 100 100 97 92 78 54 64 99 90 68 45 51 61 62 58 57 57 64 57 49 48 52 53 53 55 72 54 48 48 51 49 66 62
65 68 66 64 69 55 65 93 100 100 100 100 100 100 100 100 100 100 100 100 100 100 100 86 85 97 87 81 78 81 82 84 83 82 79 79 76 70 51 38 44 52 59 58
71 84 87 67 80 69 60 95 96 88 60 51 70 98 100 100 100 100 100 100 100 100 100 100 100 100 100 100 100 100 100 100 100 100 100 97 98 89 84 79 84 73 68 57
66 83 91 100 92 87 71 99 100 100 100 100 98 73 85 100 100 100 100 100 100 100 100 98 100 100 100 100 100 100 100 100 97 98 98 100 100 100 100 100 97 88 78 75
85 100 100 100 100 100 93 95 100 100 92 88 100 100 100 78 100 100 100 100 100 100 95 82 78 80 68 89 94 85 90 93 88 86 73 82 79 76 89 100 94 93 98 90
61 84 85 100 100 100 100 100 100 97 89 89 83 94 98 88 80 92 100 100 100 100 100 100 100 83 100 100 100 100 100 100 100 100 88 78 87 90 100 85 76 64 66 56
49 77 74 94 100 100 100 100 100 84 78 77 81 74 100 79 78 84 90 95 100 94 100 100 100 100 100 100 100 99 100 100 100 100 86 77 74 84 79 74 78 73 64 53
46 74 84 81 100 100 100 90 88 100 55 77 78 90 72 95 88 82 89 85 86 91 79 83 89 99 100 100 100 100 92 92 86 73 79 77 68 57 60 64 72 73 60 53
68 66 65 84 96 100 100 100 96 66 42 53 72 66 74 91 80 69 81 92 71 67 72 83 68 63 68 80 82 78 77 72 67 68 65 58 52 52 47 48 49 50 42 34
91 94 99 100 100 100 100 100 85 63 55 58 73 80 92 86 76 83 69 78 73 70 69 64 58 53 61 62 57 68 92 98 71 57 59 55 54 53 53 44 35 39 39 36
94 91 91 100 90 94 100 96 80 84 79 74 64 72 79 77 83 79 79 75 78 78 67 65 67 75 61 50 53 74 89 80 88 62 57 47 53 50 47 43 36 36 33 32
100 98 100 100 98 100 99 100 87 87 69 68 73 74 78 77 76 90 99 88 74 62 78 70 67 71 65 59 66 88 76 77 95 82 56 45 43 39 35 33 34 36 29 24
100 100 100 100 98 83 91 94 78 93 73 77 87 88 98 100 94 82 80 85 83 81 70 59 72 65 72 65 78 66 64 66 58 49 37 37 36 37 29 24 27 30 30 21
100 100 100 86 81 96 84 74 78 88 93 84 89 100 100 100 100 100 100 93 83 73 81 90 78 66 73 73 60 57 70 71 45 39 29 31 37 32 23 20 22 21 21 19
82 77 79 78 100 98 100 100 96 100 100 100 100 100 100 100 100 95 89 97 100 90 85 93 92 95 90 64 64 79 83 49 55 42 36 27 30 22 18 17 14 13 13 13
98 100 100 100 86 91 100 100 100 100 100 100 100 100 99 100 100 100 100 100 93 86 88 82 65 96 77 82 90 83 54 46 43 24 21 18 17 14 12 10 9 8 9 10
100 100 100 93 100 100 98 100 100 100 100 100 100 100 99 88 99 100 100 86 70 60 59 74 87 82 95 69 67 43 25 22 20 16 12 11 10 9 8 8 7 7 8 8
100 100 100 100 100 95 100 100 100 100 96 80 86 91 78 74 76 85 95 84 88 98 100 94 61 68 62 20 22 21 16 12 9 9 9 9 8 8 8 8 8 7 7 7
100 100 100 100 100 100 100 96 100 100 100 100 100 100 100 99 84 99 100 97 74 47 34 26 27 20 18 17 12 9 8 7 7 8 8 8 8 8 8 7 6 6 6 6
100 100 100 100 100 100 100 100 100 100 100 100 100 100 100 60 40 38 25 20 18 16 10 9 12 14 12 11 10 8 6 7 6 6 7 7 7 7 7 7 7 6 5 6
78 81 99 100 75 48 69 100 100 60 37 44 32 20 16 13 12 12 13 11 10 9 6 11 11 11 11 10 8 6 6 5 5 6 7 7 8 7 7 7 6 6 6 5
61 74 41 19 14 12 16 15 14 12 12 13 13 13 12 11 12 13 11 9 7 7 8 10 11 11 9 7 5 6 6 7 7 7 6 5 5 5 6 6 6 6 6 5

GFSNW_250_rhum_168.txt.gz
RH
81 69 52 55 59 66 54 44 37 33 32 40 43 51 39 39 50 54 61 63 58 40 34 35 30 36 52 63 51 41 47 67 78 74 61 55 51 50 49 52 46 39 41 45
92 69 54 56 58 50 43 36 34 28 28 46 55 36 44 47 82 100 57 64 82 90 73 58 42 37 36 35 41 63 48 44 44 53 57 58 51 48 45 43 39 41 35 44
100 79 61 52 47 46 42 34 32 37 31 30 34 44 57 47 39 44 51 80 76 83 75 100 83 78 63 50 56 38 39 50 42 47 46 42 38 36 38 42 43 41 44 46
100 96 78 57 50 45 45 42 44 40 50 64 51 64 72 71 39 40 43 34 44 40 44 43 70 81 93 89 78 76 82 66 41 42 44 40 40 49 54 53 55 45 42 43
100 96 93 84 58 57 44 41 50 41 41 62 46 58 96 72 58 54 79 83 63 54 46 30 37 42 48 74 86 94 98 97 90 74 76 66 56 41 44 46 55 68 67 75
91 98 100 92 56 46 44 52 62 72 67 47 51 56 65 87 88 98 92 80 66 61 68 82 97 66 48 45 47 46 38 47 76 75 92 100 89 81 78 76 73 68 66 73
94 100 97 95 76 62 49 47 69 83 95 92 48 49 46 62 81 83 88 100 95 96 70 59 59 65 71 80 76 67 72 86 78 69 54 46 64 82 64 76 72 60 63 70
100 100 99 99 89 74 66 73 62 86 98 100 80 55 51 57 73 77 89 100 100 100 95 85 86 77 84 77 82 86 71 78 74 89 81 98 96 91 98 86 60 56 47 51
97 100 100 79 91 80 98 100 87 96 90 100 92 85 51 51 66 77 93 100 100 100 99 100 100 97 95 93 84 82 84 97 68 65 80 91 100 100 99 91 81 78 76 77
98 87 93 88 96 100 100 100 100 100 86 81 78 96 83 62 68 82 82 86 99 100 100 98 95 79 94 96 75 70 70 72 82 98 96 60 82 86 96 82 66 96 100 99
100 100 96 100 100 100 100 100 100 100 88 87 86 73 74 64 65 76 92 100 100 95 90 96 85 74 74 67 79 84 74 77 93 79 92 100 100 99 71 69 78 87 96 86
62 100 100 92 80 92 86 68 87 100 100 79 75 78 75 69 70 63 71 77 91 99 78 84 96 86 87 84 73 92 82 71 75 89 90 99 98 98 100 100 99 99 79 72
60 64 100 100 99 79 78 83 88 100 100 100 100 100 90 82 94 83 77 67 69 90 85 79 76 80 79 88 96 84 72 80 70 69 88 100 99 100 93 99 100 100 100 100
75 68 81 79 78 72 74 89 100 100 100 100 100 100 100 84 67 84 100 94 78 88 73 71 80 81 92 100 94 88 84 70 75 67 76 77 77 76 90 72 68 83 99 99
99 100 98 100 100 100 99 98 100 96 98 99 100 100 100 100 100 72 69 68 59 51 58 72 84 92 100 83 73 83 98 94 64 63 69 61 63 68 60 65 66 63 67 69
97 100 82 98 100 100 100 100 100 100 99 90 97 96 100 100 100 100 82 69 58 56 57 71 100 100 100 82 87 98 96 87 76 70 68 67 71 74 73 64 73 82 85 69
97 98 84 82 89 88 95 99 100 100 94 78 71 80 100 100 100 100 94 72 68 70 84 86 89 100 100 100 93 99 87 86 94 92 91 84 85 78 79 91 96 94 75 69
92 96 96 76 86 96 99 100 100 98 92 91 91 90 100 98 91 89 64 77 100 100 100 100 100 100 100 99 98 79 80 90 91 92 92 79 89 96 83 72 60 55 52 45
100 61 79 78 84 100 100 100 92 100 92 87 90 86 97 96 88 90 90 75 93 100 100 100 100 89 93 97 91 90 82 95 88 84 74 80 84 87 64 40 35 33 31 28
79 66 68 85 79 80 70 89 100 100 100 100 96 90 91 100 100 100 100 100 100 98 81 82 82 78 83 92 83 73 88 93 77 72 80 77 67 44 23 17 15 12 11 12
100 97 94 97 99 94 80 81 86 98 87 81 98 100 94 100 96 96 100 94 79 72 85 88 84 86 88 74 72 87 89 72 62 87 67 45 23 17 15 9 10 10 11 11
100 100 97 91 80 94 100 96 95 100 97 94 100 99 100 93 83 86 89 77 69 75 89 99 100 91 74 76 76 67 50 64 77 51 26 16 8 7 7 8 9 11 11 10
100 100 97 100 100 100 100 100 100 98 93 86 81 83 83 95 95 100 99 93 100 92 97 96 75 70 69 50 32 38 54 40 30 14 9 7 8 8 9 10 11 9 7 5
100 100 100 100 100 100 100 100 99 100 100 98 88 100 100 100 100 100 98 83 79 74 71 59 56 40 27 30 38 24 24 16 10 7 7 8 10 11 10 6 5 5 6 5
100 100 100 100 100 100 100 100 91 98 99 99 100 98 77 77 86 74 60 49 50 49 40 28 14 21 29 27 19 11 8 7 7 9 9 7 6 4 4 5 5 4 4 4
100 94 100 100 100 100 94 94 86 86 99 96 93 67 65 72 66 44 31 31 26 14 12 11 19 25 15 11 8 7 7 9 8 5 4 3 3 3 4 4 4 4 4 4
43 58 60 99 94 80 71 68 71 63 54 65 63 73 30 20 21 18 16 13 15 14 18 17 11 9 8 8 8 7 4 3 3 3 3 3 3 4 4 4 4 4 5 5

GFSNW_250_rhum_171.txt.gz
RH
100 100 95 85 62 58 48 38 34 31 30 30 30 38 30 26 25 28 28 26 30 43 65 69 47 60 88 100 74 51 44 45 52 50 42 50 59 68 80 100 100 96 96 84
97 100 100 94 73 59 51 44 40 35 35 31 33 56 42 29 38 33 34 33 36 28 32 62 62 61 58 56 82 99 78 56 50 59 61 68 66 66 72 97 100 100 98 94
100 100 100 100 91 71 61 53 49 52 46 43 37 41 64 44 32 41 66 45 34 44 36 37 36 56 76 81 80 66 56 91 96 70 59 60 78 76 77 78 82 82 85 85
100 100 100 100 100 100 86 80 52 43 54 78 44 54 39 32 36 56 52 91 64 54 56 57 49 49 38 39 52 79 83 74 54 67 94 94 78 63 59 59 51 52 53 48
100 100 100 100 100 100 100 99 57 41 39 44 61 85 59 37 38 52 60 66 86 76 59 53 71 59 64 66 78 38 47 62 80 91 62 76 66 65 96 82 53 62 60 61
100 100 100 96 99 99 96 98 85 68 60 43 46 84 92 64 53 44 40 52 96 100 96 82 75 78 73 71 64 70 61 69 64 50 49 47 48 37 62 81 71 75 72 73
100 100 100 100 99 100 87 72 69 52 58 74 81 66 88 76 70 62 47 43 48 85 100 100 100 100 88 76 59 54 69 72 65 60 66 77 71 74 63 62 61 65 73 76
100 100 100 100 100 100 100 99 93 74 58 56 83 100 81 59 71 79 84 65 67 46 59 98 100 100 100 99 100 98 51 54 73 66 74 94 86 100 91 81 73 70 65 83
96 100 100 100 100 100 98 72 72 86 88 100 100 98 100 92 73 65 72 72 69 86 68 54 76 84 100 94 98 100 91 95 94 75 73 72 88 72 69 76 83 84 100 100
92 86 100 100 100 100 100 90 83 92 85 95 100 100 100 100 96 85 75 71 79 88 84 75 72 70 75 73 66 72 70 78 100 89 91 96 95 77 68 67 66 61 75 100
100 97 94 97 94 100 100 100 100 97 100 100 100 100 100 88 69 82 92 93 100 97 81 77 82 74 71 80 67 59 55 54 64 82 74 71 99 75 74 81 75 81 72 66
67 72 86 82 95 85 100 100 100 100 100 96 91 80 82 100 99 82 100 100 100 100 100 99 99 100 84 70 70 69 61 52 48 59 69 69 63 74 60 63 71 66 66 73
70 53 71 78 74 94 92 76 77 88 99 100 100 100 99 97 93 86 96 100 100 100 100 91 92 99 100 100 100 91 68 56 54 58 64 69 51 59 76 96 79 66 61 59
65 77 74 94 85 72 98 95 81 86 96 80 97 100 98 95 86 84 93 94 97 99 95 88 89 93 94 98 94 88 89 67 70 54 60 62 93 97 76 66 64 72 70 74
61 76 75 80 69 71 64 76 84 72 97 94 94 88 78 93 99 100 100 100 100 100 100 89 89 92 100 100 100 90 70 64 55 50 65 54 56 63 71 82 86 83 76 78
61 70 74 85 86 96 89 90 92 91 78 77 93 97 98 100 100 100 100 100 100 100 100 100 88 100 100 86 83 72 86 83 80 80 82 80 79 83 79 85 97 97 95 93
86 82 88 82 69 90 99 85 91 97 93 98 100 92 99 100 100 100 100 98 98 98 99 100 100 99 96 76 71 99 77 75 76 84 96 97 94 98 98 84 85 89 90 83
98 89 95 98 90 77 79 91 83 78 87 80 75 91 100 100 98 100 100 100 100 100 100 97 100 100 100 81 100 88 85 88 100 100 100 100 100 100 97 93 77 65 70 63
98 99 98 100 100 100 100 100 100 100 100 99 97 99 87 89 92 63 63 81 84 77 64 68 75 84 79 92 88 83 92 94 100 100 100 96 96 100 90 79 61 63 63 52
100 100 100 100 100 100 100 100 99 100 100 100 100 100 87 74 72 71 68 73 88 88 88 84 82 79 100 78 83 100 97 96 86 95 100 100 95 81 61 60 56 47 40 37
100 100 100 100 100 100 100 100 98 100 100 98 89 100 97 69 92 96 89 77 82 68 68 87 88 96 100 95 100 100 98 99 100 97 80 56 48 46 40 39 30 30 24 17
100 100 100 100 100 100 100 100 100 100 84 93 100 98 92 98 100 100 100 96 96 96 96 99 100 100 82 99 95 90 89 90 74 59 50 38 34 35 28 22 20 14 8 7
100 100 100 100 100 100 100 100 100 100 100 100 98 98 100 95 96 99 100 100 100 97 98 100 100 78 80 81 91 98 71 39 30 24 25 24 22 16 11 9 8 6 5 5
100 100 100 100 100 100 100 100 100 100 100 100 100 100 100 100 100 100 100 85 92 97 100 98 82 68 65 70 58 42 34 20 14 12 11 10 8 7 6 5 5 4 4 4
100 100 100 100 100 100 100 100 100 100 100 100 100 100 100 100 100 100 97 100 94 94 84 72 52 42 40 43 29 19 12 10 8 6 8 7 5 5 5 4 4 4 3 3
83 93 100 100 100 100 100 91 90 100 100 100 97 93 89 87 84 87 89 81 74 61 45 33 23 22 20 16 11 7 6 7 6 6 5 5 4 4 4 5 4 4 4 4
54 68 96 100 93 84 65 56 71 78 80 83 84 84 89 70 59 53 35 26 22 18 16 14 11 10 9 6 5 6 7 6 5 5 4 4 5 5 5 4 5 6 5 5